Location: Central Coast NSW, Australia
(33.2407°S, 151.4316°E)
Time: 14:29:33
(UTC+10:00)

Envisat - Pass Details

Date: 31 March 2019
Orbit: 764 x 766 km, 98.2° (Epoch: 19 April)

Event Time Altitude Azimuth Distance (km) Brightness Sun altitude
Rises 20:20:09 0° 169° (S) 3,266 6.2 -19.3°
Reaches altitude 10° 20:22:28 10° 170° (S) 2,333 5.5 -19.7°
Maximum altitude 20:27:37 82° 256° (WSW) 785 3.0 -20.8°
Drops below altitude 10° 20:32:43 10° 343° (NNW) 2,303 5.5 -21.9°
Sets 20:35:00 0° 344° (NNW) 3,221 6.3 -22.3°
